This is the latest recevied weather packets stored in our database for station/object UB3AVW-13. If no packets are shown the sender has not sent any weather packets the latest 1 day(s).
| Time | Temp. | Humidity | Pressure | Rain* | Wind** | Luminosity | Snow |
|---|---|---|---|---|---|---|---|
| 1778081668 | 18.89° C | 56% | 987.6 hPa | - | 3.58 m/s, 330° | - | - |
| 1778081544 | 18.89° C | 56% | 987.6 hPa | - | 3.58 m/s, 330° | - | - |
| 1778080937 | 18.89° C | 56% | 987.6 hPa | - | 3.58 m/s, 330° | - | - |
| 1778080027 | 18.89° C | 56% | 987.6 hPa | - | 3.58 m/s, 330° | - | - |
| 1778079117 | 18.89° C | 56% | 988.6 hPa | - | 3.58 m/s, 314° | - | - |
| 1778078206 | 20.56° C | 55% | 988.7 hPa | - | 3.58 m/s, 314° | - | - |
| 1778077903 | 20.56° C | 55% | 988.7 hPa | - | 3.58 m/s, 314° | - | - |
| 1778077599 | 20.56° C | 55% | 988.8 hPa | - | 3.58 m/s, 314° | - | - |
| 1778075170 | 20.56° C | 50% | 988.7 hPa | - | 3.58 m/s, 303° | - | - |
| 1778074446 | 20.56° C | 50% | 988.7 hPa | - | 3.58 m/s, 303° | - | - |
| 1778072743 | 20.56° C | 50% | 988.7 hPa | - | 3.58 m/s, 303° | - | - |
| 1778071832 | 20.56° C | 50% | 988.7 hPa | - | 3.58 m/s, 296° | - | - |
| 1778071225 | 20.56° C | 50% | 988.7 hPa | - | 3.58 m/s, 296° | - | - |
| 1778070310 | 20.56° C | 50% | 987.7 hPa | - | 3.58 m/s, 296° | - | - |
| 1778070007 | 20.56° C | 50% | 987.7 hPa | - | 3.58 m/s, 296° | - | - |
| 1778069703 | 20.56° C | 50% | 987.7 hPa | - | 3.58 m/s, 296° | - | - |
| 1778068793 | 20.56° C | 50% | 987.7 hPa | - | 3.58 m/s, 287° | - | - |
| 1778065759 | 20.56° C | 50% | 987.7 hPa | - | 3.58 m/s, 287° | - | - |
| 1778065152 | 20.56° C | 50% | 986.8 hPa | - | 4.02 m/s, 286° | - | - |
| 1778064849 | 18.33° C | 59% | 987.6 hPa | - | 4.02 m/s, 286° | - | - |
| 1778063938 | 18.33° C | 59% | 987.6 hPa | - | 4.02 m/s, 286° | - | - |
| 1778063634 | 18.33° C | 59% | 987.6 hPa | - | 4.02 m/s, 286° | - | - |
| 1778062421 | 18.33° C | 59% | 987.6 hPa | - | 4.02 m/s, 286° | - | - |
| 1778062118 | 17.78° C | 63% | 987.5 hPa | - | 3.58 m/s, 286° | - | - |
| 1778061878 | 18.33° C | 59% | 987.6 hPa | - | 4.02 m/s, 286° | - | - |
* Rain since midnight (hover to see other rain measurements)
** Current wind speed in m/s (hover to see current wind gust speed)